Regional Weather Roundup
Issued by NWS

Home | Current Version | Previous Version | Graphics & Text | Print | Product List | Glossary On
Versions: 1 2 3 4 5 6 7 8 9 10 11 12 13 14 15 16 17 18 19 20 21 22 23 24 25 26 27 28 29 30 31 32 33 34 35 36 37 38 39 40 41 42 43 44 45 46 47 48 49 50
000
ASUS43 KOAX 222302
RWRNE

WEATHER ROUNDUP FOR NEBRASKA
NATIONAL WEATHER SERVICE OMAHA NE
600 PM CDT FRI AUG 22 2014

NOTES: SATELLITE DATA IS BEING USED TO AUGMENT CLOUD COVER ABOVE
       12000 FEET.
       "FAIR" INDICATES FEW OR NO CLOUDS BELOW 12,000 FEET WITH NO
       SIGNIFICANT WEATHER AND/OR OBSTRUCTIONS TO VISIBILITY.

  * THESE STATIONS DO NOT REPORT WEATHER SUCH AS RAIN...SNOW OR FOG.

NEZ001>004-019>022-054>056-230000-
NEBRASKA PANHANDLE

CITY           SKY/WX    TMP DP  RH WIND       PRES   REMARKS
SCOTTSBLUFF    LGT RAIN  71  60  68 E13       30.03S
ALLIANCE       CLOUDY    71  56  58 S16       30.06S
CHADRON        PTSUNNY   78  59  51 E8        30.00F
KIMBALL        PTSUNNY   70  55  59 SE12      30.07S
SIDNEY         CLOUDY    67  61  81 CALM      30.08F
$$

NEZ057>060-069>072-079>082-230000-
SOUTHWEST NEBRASKA

CITY           SKY/WX    TMP DP  RH WIND       PRES   REMARKS
NORTH PLATTE   MOSUNNY   83  63  50 E10       29.97F
IMPERIAL       CLOUDY    78  57  48 N9        29.98F
LEXINGTON      MOSUNNY   85  72  66 E7        29.96S HX  90
MCCOOK         PTSUNNY   88  63  43 E20       29.91F
OGALLALA       PTSUNNY   75  58  54 N9        30.01F
$$

NEZ005>010-023>029-035>040-094-230000-
NORTH CENTRAL NEBRASKA

CITY           SKY/WX    TMP DP  RH WIND       PRES   REMARKS
VALENTINE      CLOUDY    81  58  45 S10       30.02S
AINSWORTH      CLOUDY    75  66  71 W5        30.02S
BROKEN BOW     LGT RAIN  83  71  67 NE8       29.98R
O`NEILL        CLOUDY    82  70  67 NE6       29.98R
ORD            MOSUNNY   86  70  58 NE10      29.94S HX  90
THEDFORD       CLOUDY    76  62  60 NW7       30.04S
$$

NEZ041-046>049-061>064-073>077-083>087-230000-
SOUTH CENTRAL NEBRASKA

CITY           SKY/WX    TMP DP  RH WIND       PRES   REMARKS
GRAND ISLAND   MOSUNNY   87  73  62 E9        29.91F HX  94
AURORA         PTSUNNY   87  77  72 NE9       29.90F HX  98
HASTINGS       MOSUNNY   84  71  65 NE10      29.92F
HEBRON         MOSUNNY   87  69  53 NE5       29.89F HX  91
HOLDREGE       MOSUNNY   83  72  69 CALM      29.94S
KEARNEY *      MOSUNNY   84  73  70 NE8       29.95R HX  91
YORK           MOSUNNY   84 N/A N/A E6        29.90F
$$

NEZ011>018-030>034-042>045-230000-
NORTHEAST NEBRASKA

CITY           SKY/WX    TMP DP  RH WIND       PRES   REMARKS
NORFOLK        MOSUNNY   87  71  58 NE8       29.92F HX  93
ALBION         MOSUNNY   86  68  54 NE8       29.93F
BLAIR          CLOUDY    72  69  88 CALM      29.90F
FREMONT        CLOUDY    81  66  60 E15G26    29.91R
TEKAMAH        PTSUNNY   88  78  72 NE7       29.89F HX 101
WAYNE          MOSUNNY   85  75  70 NE7       29.93F HX  93
$$

NEZ050>053-065>068-078-088>093-230000-
SOUTHEAST NEBRASKA

CITY           SKY/WX    TMP DP  RH WIND       PRES   REMARKS
LINCOLN        PTSUNNY   90  69  50 S10       29.88F HX  94
OMAHA EPPLEY   TSTM      77  73  87 SW6       29.89F
BEATRICE       PTSUNNY   84  70  61 E3        29.90R
FALLS CITY     CLOUDY    81  77  88 E5        29.88R
NEBRASKA CITY  CLOUDY    78  74  86 SE7       29.90F
PLATTSMOUTH    CLOUDY    82  74  77 S6        29.90F
$$

NEZ044-045-051>053-067-230000-
OMAHA AREA

CITY           SKY/WX    TMP DP  RH WIND       PRES   REMARKS
OMAHA EPPLEY   TSTM      77  73  87 SW6       29.89F
BLAIR          CLOUDY    72  69  88 CALM      29.90F
FREMONT        CLOUDY    81  66  60 E15G26    29.91R
MILLARD        CLOUDY    81  70  68 CALM      29.90S
PLATTSMOUTH    CLOUDY    82  74  77 S6        29.90F
WAHOO          RAIN      76  70  81 SE15G25   29.92R
$$



USA.gov is the U.S. government's official web portal to all federal, state and local government web resources and services.